﻿_id,日時,平均風速(m/s),平均風向,最大瞬間風速(m/s),最大風速時風向,気温(℃),湿度(%),10分間移動積算雨量(mm),1時間移動積算雨量(mm),日雨量(mm),累計雨量(mm),日射(日積算)(MJ/m2),日照(日積算)(min),現地気圧(hPa),海面気圧(hPa)
1,2019-10-28T00:00:00,0.6,北北西,1.3,北北東,12.7,91.3,0,0,0,0,12.21,318,1004.1,1018.1
2,2019-10-28T00:01:00,0.6,北北西,1.7,北東,12.7,91.3,0,0,0,0,0,0,1004.1,1018.1
3,2019-10-28T00:02:00,0.7,北,1.9,北北東,12.7,91.3,0,0,0,0,0,0,1004.1,1018.1
4,2019-10-28T00:03:00,0.7,北,1.9,北北東,12.5,90.8,0,0,0,0,0,0,1004,1018
5,2019-10-28T00:04:00,0.7,北,1.9,北北東,12.6,91.1,0,0,0,0,0,0,1004,1018
6,2019-10-28T00:05:00,0.7,北北東,1.9,北北東,12.7,91.7,0,0,0,0,0,0,1004,1018
7,2019-10-28T00:06:00,0.7,北北東,1.9,北北東,12.8,91.9,0,0,0,0,0,0,1003.9,1017.9
8,2019-10-28T00:07:00,0.7,北北東,1.9,北北東,12.7,91.4,0,0,0,0,0,0,1004,1018
9,2019-10-28T00:08:00,0.6,北北東,1.9,北北東,12.7,91.2,0,0,0,0,0,0,1004,1018
10,2019-10-28T00:09:00,0.7,北北東,2.2,北東,12.6,91,0,0,0,0,0,0,1004,1018
11,2019-10-28T00:10:00,0.7,北東,2.2,北東,12.4,90.9,0,0,0,0,0,0,1004,1018
12,2019-10-28T00:11:00,0.7,北東,2.2,北東,12.5,91.3,0,0,0,0,0,0,1004.1,1018.1
13,2019-10-28T00:12:00,0.6,北東,2.2,北東,12.7,92.1,0,0,0,0,0,0,1004.1,1018.1
14,2019-10-28T00:13:00,0.7,北東,2.2,北東,13,92.8,0,0,0,0,0,0,1004.1,1018.1
15,2019-10-28T00:14:00,0.7,北北東,2.2,北東,12.8,92,0,0,0,0,0,0,1004.1,1018.1
16,2019-10-28T00:15:00,0.8,北北東,2.2,北東,12.8,91.2,0,0,0,0,0,0,1004.1,1018.1
17,2019-10-28T00:16:00,0.9,北北東,2.2,北東,12.7,90.8,0,0,0,0,0,0,1004.1,1018.1
18,2019-10-28T00:17:00,1,北北東,2.2,北東,12.8,91,0,0,0,0,0,0,1004.1,1018.1
19,2019-10-28T00:18:00,1,北北東,2.2,北東,12.8,91.1,0,0,0,0,0,0,1004.1,1018.1
20,2019-10-28T00:19:00,1,北北東,1.9,北北東,12.8,90.7,0,0,0,0,0,0,1004.1,1018.1
21,2019-10-28T00:20:00,1,北北東,1.9,北北東,12.8,90.7,0,0,0,0,0,0,1004.1,1018.1
22,2019-10-28T00:21:00,1,北,1.9,北北東,12.7,90.5,0,0,0,0,0,0,1004.1,1018.1
23,2019-10-28T00:22:00,1,北,1.9,北北東,12.8,90.8,0,0,0,0,0,0,1004.1,1018.1
24,2019-10-28T00:23:00,1,北,1.9,北北東,12.7,90.5,0,0,0,0,0,0,1004.1,1018.1
25,2019-10-28T00:24:00,1,北,1.9,北北東,12.6,90.1,0,0,0,0,0,0,1004.1,1018.1
26,2019-10-28T00:25:00,1,北,1.8,北北東,12.6,90.7,0,0,0,0,0,0,1004.1,1018.1
27,2019-10-28T00:26:00,0.9,北,1.7,北,12.6,90.8,0,0,0,0,0,0,1004.2,1018.2
28,2019-10-28T00:27:00,0.9,北,1.7,北,12.5,91,0,0,0,0,0,0,1004.2,1018.2
29,2019-10-28T00:28:00,0.9,北,1.8,北北東,12.6,91.3,0,0,0,0,0,0,1004.2,1018.2
30,2019-10-28T00:29:00,0.9,北,1.8,北北東,12.8,92.2,0,0,0,0,0,0,1004.2,1018.2
31,2019-10-28T00:30:00,0.9,北,1.8,北北東,12.7,91.4,0,0,0,0,0,0,1004.2,1018.2
32,2019-10-28T00:31:00,0.8,北,1.8,北北東,12.6,90.8,0,0,0,0,0,0,1004.1,1018.1
33,2019-10-28T00:32:00,0.8,北,1.8,北北東,12.6,90.8,0,0,0,0,0,0,1004.1,1018.1
34,2019-10-28T00:33:00,0.7,北,1.8,北北東,12.5,91,0,0,0,0,0,0,1004.1,1018.1
35,2019-10-28T00:34:00,0.6,北,1.8,北北東,12.4,90.6,0,0,0,0,0,0,1004.1,1018.1
36,2019-10-28T00:35:00,0.5,北北西,1.8,北北東,12.4,91.3,0,0,0,0,0,0,1004.1,1018.1
37,2019-10-28T00:36:00,0.5,北北西,1.8,北北東,12.3,91.3,0,0,0,0,0,0,1004.1,1018.1
38,2019-10-28T00:37:00,0.4,北北西,1.8,北北東,12.2,91.1,0,0,0,0,0,0,1004.2,1018.2
39,2019-10-28T00:38:00,0.3,北西,0.9,北北東,12.2,91.6,0,0,0,0,0,0,1004.2,1018.2
40,2019-10-28T00:39:00,0.4,北西,0.8,北西,12.2,92.2,0,0,0,0,0,0,1004.3,1018.3
41,2019-10-28T00:40:00,0.4,北西,0.9,西,12.3,92.8,0,0,0,0,0,0,1004.3,1018.3
42,2019-10-28T00:41:00,0.4,北西,0.9,西,12.3,93,0,0,0,0,0,0,1004.3,1018.3
43,2019-10-28T00:42:00,0.4,北西,0.9,西,12.5,93.4,0,0,0,0,0,0,1004.4,1018.4
44,2019-10-28T00:43:00,0.4,北西,0.9,西,12.5,93.3,0,0,0,0,0,0,1004.4,1018.4
45,2019-10-28T00:44:00,0.4,北西,0.9,西,12.5,92.9,0,0,0,0,0,0,1004.3,1018.3
46,2019-10-28T00:45:00,0.4,北西,0.9,西,12.6,92.4,0,0,0,0,0,0,1004.3,1018.3
47,2019-10-28T00:46:00,0.4,北西,0.9,西,12.4,91.9,0,0,0,0,0,0,1004.3,1018.3
48,2019-10-28T00:47:00,0.5,北西,1.5,北,12.4,91.8,0,0,0,0,0,0,1004.2,1018.2
49,2019-10-28T00:48:00,0.6,北西,1.8,北北東,12.5,92.2,0,0,0,0,0,0,1004.2,1018.2
50,2019-10-28T00:49:00,0.6,北北西,1.8,北北東,12.5,92,0,0,0,0,0,0,1004.2,1018.2
51,2019-10-28T00:50:00,0.7,北北西,1.8,北北東,12.6,92.2,0,0,0,0,0,0,1004.1,1018.1
52,2019-10-28T00:51:00,0.8,北,1.8,北北東,12.5,91.9,0,0,0,0,0,0,1004.2,1018.2
53,2019-10-28T00:52:00,0.9,北,1.8,北北東,12.6,91.8,0,0,0,0,0,0,1004.2,1018.2
54,2019-10-28T00:53:00,1,北,1.8,北北東,12.7,92,0,0,0,0,0,0,1004.2,1018.2
55,2019-10-28T00:54:00,1,北北東,1.8,北北東,12.6,91.4,0,0,0,0,0,0,1004.2,1018.2
56,2019-10-28T00:55:00,1.1,北北東,1.8,北北東,12.6,90.9,0,0,0,0,0,0,1004.2,1018.2
57,2019-10-28T00:56:00,1.2,北北東,1.8,北北東,12.7,91.2,0,0,0,0,0,0,1004.1,1018.1
58,2019-10-28T00:57:00,1.2,北北東,2.1,北東,12.6,90.6,0,0,0,0,0,0,1004.1,1018.1
59,2019-10-28T00:58:00,1.2,北北東,2.1,北東,12.9,91.2,0,0,0,0,0,0,1004.1,1018.1
60,2019-10-28T00:59:00,1.2,北北東,2.6,東北東,12.7,90.9,0,0,0,0,0,0,1004.1,1018.1
61,2019-10-28T01:00:00,1.3,北北東,3.3,北北東,12.7,90.4,0,0,0,0,0,0,1004.1,1018.1
62,2019-10-28T01:01:00,1.4,北北東,3.3,北北東,12.6,89.9,0,0,0,0,0,0,1004.1,1018.1
63,2019-10-28T01:02:00,1.4,北北東,3.3,北北東,12.7,89.9,0,0,0,0,0,0,1004.2,1018.2
64,2019-10-28T01:03:00,1.4,北北東,3.3,北北東,12.6,90.2,0,0,0,0,0,0,1004.2,1018.2
65,2019-10-28T01:04:00,1.4,北北東,3.3,北北東,12.6,89.7,0,0,0,0,0,0,1004.2,1018.2
66,2019-10-28T01:05:00,1.4,北北東,3.3,北北東,12.5,89.7,0,0,0,0,0,0,1004.2,1018.2
67,2019-10-28T01:06:00,1.4,北,3.3,北北東,12.5,90.2,0,0,0,0,0,0,1004.2,1018.2
68,2019-10-28T01:07:00,1.4,北,3.3,北北東,12.5,90.5,0,0,0,0,0,0,1004.2,1018.2
69,2019-10-28T01:08:00,1.4,北,3.3,北北東,12.6,90.8,0,0,0,0,0,0,1004.2,1018.2
70,2019-10-28T01:09:00,1.3,北,3.3,北北東,12.7,90.8,0,0,0,0,0,0,1004.2,1018.2
71,2019-10-28T01:10:00,1.2,北,2.7,北北東,12.6,90.7,0,0,0,0,0,0,1004.2,1018.2
72,2019-10-28T01:11:00,1.2,北,2,北,12.6,90.4,0,0,0,0,0,0,1004.2,1018.2
73,2019-10-28T01:12:00,1.2,北,1.9,北,12.7,90.4,0,0,0,0,0,0,1004.2,1018.2
74,2019-10-28T01:13:00,1.2,北,1.9,北,12.7,90.4,0,0,0,0,0,0,1004.2,1018.2
75,2019-10-28T01:14:00,1.1,北,1.9,北,12.7,89.9,0,0,0,0,0,0,1004.2,1018.2
76,2019-10-28T01:15:00,1,北,1.9,北,12.6,89.5,0,0,0,0,0,0,1004.2,1018.2
77,2019-10-28T01:16:00,1,北,1.9,北,12.5,89.6,0,0,0,0,0,0,1004.2,1018.2
78,2019-10-28T01:17:00,1,北北東,1.9,北,12.5,89.7,0,0,0,0,0,0,1004.2,1018.2
79,2019-10-28T01:18:00,0.9,北北東,1.9,北,12.6,90.1,0,0,0,0,0,0,1004.1,1018.1
80,2019-10-28T01:19:00,0.9,北北東,1.9,北,12.6,90.3,0,0,0,0,0,0,1004.1,1018.1
81,2019-10-28T01:20:00,0.8,北北東,1.9,北,12.6,90.2,0,0,0,0,0,0,1004.1,1018.1
82,2019-10-28T01:21:00,0.7,北北東,1.7,北北東,12.6,90.1,0,0,0,0,0,0,1004.1,1018.1
83,2019-10-28T01:22:00,0.6,北,1.5,北北東,12.4,89.9,0,0,0,0,0,0,1004.1,1018.1
84,2019-10-28T01:23:00,0.6,北,1.2,北北東,12.4,90,0,0,0,0,0,0,1004.2,1018.2
85,2019-10-28T01:24:00,0.6,北北西,1.2,北北東,12.4,90.6,0,0,0,0,0,0,1004.1,1018.1
86,2019-10-28T01:25:00,0.6,北北西,1.2,北北東,12.4,90.8,0,0,0,0,0,0,1004.1,1018.1
87,2019-10-28T01:26:00,0.6,北西,1.2,北北東,12.4,90.9,0,0,0,0,0,0,1004.1,1018.1
88,2019-10-28T01:27:00,0.6,北西,1.1,西,12.3,91.3,0,0,0,0,0,0,1004.1,1018.1
89,2019-10-28T01:28:00,0.6,西北西,1.1,西,12.4,91.6,0,0,0,0,0,0,1004.1,1018.1
90,2019-10-28T01:29:00,0.6,西北西,1.1,西,12.3,91.7,0,0,0,0,0,0,1004.1,1018.1
91,2019-10-28T01:30:00,0.7,西北西,1.4,西,12.2,91.2,0,0,0,0,0,0,1004.1,1018.1
92,2019-10-28T01:31:00,0.8,西北西,1.5,西,12.3,91.5,0,0,0,0,0,0,1004.1,1018.1
93,2019-10-28T01:32:00,0.9,西,1.5,西,12.4,92.4,0,0,0,0,0,0,1004.1,1018.1
94,2019-10-28T01:33:00,0.9,西,1.5,西,12.2,91.9,0,0,0,0,0,0,1004.1,1018.1
95,2019-10-28T01:34:00,1,西,1.5,西,12.1,91.3,0,0,0,0,0,0,1004.1,1018.1
96,2019-10-28T01:35:00,1,西,1.5,西,11.9,91.1,0,0,0,0,0,0,1004.1,1018.1
97,2019-10-28T01:36:00,1,西,1.5,西,12.1,91.9,0,0,0,0,0,0,1004.1,1018.1
98,2019-10-28T01:37:00,0.9,西,1.5,西,12.2,92.9,0,0,0,0,0,0,1004.1,1018.1
99,2019-10-28T01:38:00,0.9,西,1.5,西,12.1,92.5,0,0,0,0,0,0,1004.2,1018.2
100,2019-10-28T01:39:00,0.9,西北西,1.5,西,12.2,92.9,0,0,0,0,0,0,1004.2,1018.2
101,2019-10-28T01:40:00,0.8,西北西,1.5,西,12.3,93.1,0,0,0,0,0,0,1004.2,1018.2
102,2019-10-28T01:41:00,0.7,西北西,1.5,西,12.2,92.6,0,0,0,0,0,0,1004.2,1018.2
103,2019-10-28T01:42:00,0.6,北西,1.5,西,12.2,92.2,0,0,0,0,0,0,1004.1,1018.1
104,2019-10-28T01:43:00,0.5,北西,1.5,西,12.2,92.4,0,0,0,0,0,0,1004.1,1018.1
105,2019-10-28T01:44:00,0.4,北北西,1.3,西,12.3,92.6,0,0,0,0,0,0,1004.1,1018.1
106,2019-10-28T01:45:00,0.3,北北西,1,北北西,12.1,92,0,0,0,0,0,0,1004.1,1018.1
107,2019-10-28T01:46:00,0.4,北,1,北北西,12.1,91.7,0,0,0,0,0,0,1004.1,1018.1
108,2019-10-28T01:47:00,0.4,北北東,1,北北西,12.3,92.5,0,0,0,0,0,0,1004.1,1018.1
109,2019-10-28T01:48:00,0.4,北北東,1,北北西,12.5,93,0,0,0,0,0,0,1004.1,1018.1
110,2019-10-28T01:49:00,0.4,北北東,1,北東,12.5,92.6,0,0,0,0,0,0,1004.1,1018.1
111,2019-10-28T01:50:00,0.4,北北東,1,北東,12.5,91.5,0,0,0,0,0,0,1004.2,1018.2
112,2019-10-28T01:51:00,0.5,北北東,1,北東,12.4,91.1,0,0,0,0,0,0,1004.2,1018.2
113,2019-10-28T01:52:00,0.5,北北東,1.2,北北東,12.4,90.8,0,0,0,0,0,0,1004.2,1018.2
114,2019-10-28T01:53:00,0.6,北東,1.4,北北東,12.4,90.9,0,0,0,0,0,0,1004.2,1018.2
115,2019-10-28T01:54:00,0.7,北東,1.7,北北東,12.5,91.2,0,0,0,0,0,0,1004.1,1018.1
116,2019-10-28T01:55:00,0.8,北北東,1.7,北北東,12.4,90.7,0,0,0,0,0,0,1004.1,1018.1
117,2019-10-28T01:56:00,0.9,北東,1.9,北東,12.4,90.2,0,0,0,0,0,0,1004.1,1018.1
118,2019-10-28T01:57:00,0.9,北北東,1.9,北東,12.6,91,0,0,0,0,0,0,1004.1,1018.1
119,2019-10-28T01:58:00,0.9,北北東,1.9,北東,12.6,91.1,0,0,0,0,0,0,1004.1,1018.1
120,2019-10-28T01:59:00,1,北北東,1.9,北東,12.5,90.5,0,0,0,0,0,0,1004.1,1018.1
121,2019-10-28T02:00:00,0.9,北北東,1.9,北東,12.7,90.5,0,0,0,0,0,0,1004.1,1018.1
122,2019-10-28T02:01:00,0.9,北北東,1.9,北東,12.5,89.7,0,0,0,0,0,0,1004.1,1018.1
123,2019-10-28T02:02:00,0.9,北北東,1.9,北東,12.3,89.1,0,0,0,0,0,0,1004.1,1018.1
124,2019-10-28T02:03:00,0.9,北北東,1.9,北東,12.4,89.6,0,0,0,0,0,0,1004,1018
125,2019-10-28T02:04:00,0.9,北北東,1.9,北東,12.5,90.3,0,0,0,0,0,0,1004,1018
126,2019-10-28T02:05:00,1,北北東,1.9,北東,12.6,90.4,0,0,0,0,0,0,1004,1018
127,2019-10-28T02:06:00,0.9,北北東,1.9,北北東,12.4,90.1,0,0,0,0,0,0,1004,1018
128,2019-10-28T02:07:00,0.9,北北東,1.6,北北東,12.5,90.2,0,0,0,0,0,0,1004.1,1018.1
129,2019-10-28T02:08:00,0.8,北北東,1.6,北北東,12.3,89.9,0,0,0,0,0,0,1004.1,1018.1
130,2019-10-28T02:09:00,0.8,北北東,1.6,北北東,12.3,89.8,0,0,0,0,0,0,1004,1018
131,2019-10-28T02:10:00,0.7,北北東,1.6,北北東,12.1,89.7,0,0,0,0,0,0,1004.1,1018.1
132,2019-10-28T02:11:00,0.7,北北東,1.6,北北東,12.2,90.1,0,0,0,0,0,0,1004,1018
133,2019-10-28T02:12:00,0.7,北北東,1.6,北北東,12.3,91,0,0,0,0,0,0,1004,1018
134,2019-10-28T02:13:00,0.6,北北東,1.6,北北東,12.4,91.6,0,0,0,0,0,0,1004,1018
135,2019-10-28T02:14:00,0.5,北北東,1.4,北東,12.3,91.4,0,0,0,0,0,0,1004,1018
136,2019-10-28T02:15:00,0.4,北北東,1.2,北北東,12.2,90.9,0,0,0,0,0,0,1004,1018
137,2019-10-28T02:16:00,0.4,北北東,1,東北東,12.3,91.1,0,0,0,0,0,0,1004,1018
138,2019-10-28T02:17:00,0.4,北北東,1,東北東,12.2,91.1,0,0,0,0,0,0,1004,1018
139,2019-10-28T02:18:00,0.4,北北東,1,東北東,12.2,91.2,0,0,0,0,0,0,1004,1018
140,2019-10-28T02:19:00,0.5,北北東,1,東北東,12.1,90.8,0,0,0,0,0,0,1004,1018
141,2019-10-28T02:20:00,0.5,北北東,1,東北東,12.1,91.1,0,0,0,0,0,0,1004,1018
142,2019-10-28T02:21:00,0.4,北,1,東北東,12,91.3,0,0,0,0,0,0,1004,1018
143,2019-10-28T02:22:00,0.4,北,1,東北東,12,91.8,0,0,0,0,0,0,1004,1018
144,2019-10-28T02:23:00,0.3,北,1,東北東,11.9,91.7,0,0,0,0,0,0,1004,1018
145,2019-10-28T02:24:00,0.3,北,1,東北東,11.9,92,0,0,0,0,0,0,1004,1018
146,2019-10-28T02:25:00,0.3,北,1,東北東,11.9,92.4,0,0,0,0,0,0,1004,1018
147,2019-10-28T02:26:00,0.3,北,1,北,12.1,92.9,0,0,0,0,0,0,1004,1018
148,2019-10-28T02:27:00,0.2,静穏,0.9,北北東,12.1,93.4,0,0,0,0,0,0,1004,1018
149,2019-10-28T02:28:00,0.2,静穏,0.7,北北東,12.1,92.9,0,0,0,0,0,0,1004,1018
150,2019-10-28T02:29:00,0.2,静穏,0.7,北北東,12.1,92.4,0,0,0,0,0,0,1004,1018
151,2019-10-28T02:30:00,0.2,静穏,0.7,北北東,12,92.6,0,0,0,0,0,0,1004,1018
152,2019-10-28T02:31:00,0.1,静穏,0.7,北北東,12,92.4,0,0,0,0,0,0,1003.9,1017.9
153,2019-10-28T02:32:00,0.1,静穏,0.7,北北東,12.1,92.7,0,0,0,0,0,0,1004,1018
154,2019-10-28T02:33:00,0.2,静穏,0.7,北北東,12.2,93,0,0,0,0,0,0,1004,1018
155,2019-10-28T02:34:00,0.2,静穏,0.7,北北東,12.1,92.3,0,0,0,0,0,0,1004,1018
156,2019-10-28T02:35:00,0.2,静穏,0.7,北北東,11.9,91.8,0,0,0,0,0,0,1004,1018
157,2019-10-28T02:36:00,0.2,静穏,0.7,西北西,12.1,92.4,0,0,0,0,0,0,1004,1018
158,2019-10-28T02:37:00,0.2,静穏,0.7,西北西,12,92.3,0,0,0,0,0,0,1004.1,1018.1
159,2019-10-28T02:38:00,0.2,静穏,0.7,西北西,11.9,92.1,0,0,0,0,0,0,1004,1018
160,2019-10-28T02:39:00,0.2,静穏,0.7,西北西,12,92.3,0,0,0,0,0,0,1004,1018
161,2019-10-28T02:40:00,0.3,北西,0.7,西北西,11.9,92.4,0,0,0,0,0,0,1004,1018
162,2019-10-28T02:41:00,0.3,西北西,0.7,西北西,11.8,92.2,0,0,0,0,0,0,1004,1018
163,2019-10-28T02:42:00,0.4,西北西,1.1,西北西,11.8,92.4,0,0,0,0,0,0,1004,1018
164,2019-10-28T02:43:00,0.5,西北西,1.1,西北西,11.8,92.6,0,0,0,0,0,0,1004,1018
165,2019-10-28T02:44:00,0.5,西北西,1.1,西北西,11.8,92.7,0,0,0,0,0,0,1004,1018
166,2019-10-28T02:45:00,0.4,西北西,1.1,西北西,11.8,93,0,0,0,0,0,0,1004,1018
167,2019-10-28T02:46:00,0.4,西北西,1.1,西北西,11.9,93.4,0,0,0,0,0,0,1004,1018
168,2019-10-28T02:47:00,0.4,西北西,1.1,西北西,11.8,93.1,0,0,0,0,0,0,1004,1018
169,2019-10-28T02:48:00,0.5,西北西,1.1,西北西,11.9,93.3,0,0,0,0,0,0,1004,1018
170,2019-10-28T02:49:00,0.5,西北西,1.1,西北西,11.9,93.2,0,0,0,0,0,0,1004,1018
171,2019-10-28T02:50:00,0.6,西北西,1.3,西南西,11.8,92.9,0,0,0,0,0,0,1004,1018
172,2019-10-28T02:51:00,0.6,西北西,1.3,西南西,11.8,92.6,0,0,0,0,0,0,1004,1018
173,2019-10-28T02:52:00,0.6,西,1.3,西南西,11.8,92.8,0,0,0,0,0,0,1004.1,1018.1
174,2019-10-28T02:53:00,0.5,西,1.3,西南西,11.7,92.7,0,0,0,0,0,0,1004.1,1018.1
175,2019-10-28T02:54:00,0.5,西,1.3,西南西,11.8,93.1,0,0,0,0,0,0,1004.1,1018.1
176,2019-10-28T02:55:00,0.5,西,1.3,西南西,11.8,93.5,0,0,0,0,0,0,1004.1,1018.1
177,2019-10-28T02:56:00,0.5,西北西,1.3,西南西,11.7,93.1,0,0,0,0,0,0,1004.1,1018.1
178,2019-10-28T02:57:00,0.5,西北西,1.3,西南西,11.8,93.3,0,0,0,0,0,0,1004.1,1018.1
179,2019-10-28T02:58:00,0.4,西北西,1.3,西南西,11.7,93.2,0,0,0,0,0,0,1004.1,1018.1
180,2019-10-28T02:59:00,0.4,北西,1.3,西南西,11.7,93,0,0,0,0,0,0,1004.1,1018.1
181,2019-10-28T03:00:00,0.3,北北西,1.1,西,11.7,93.1,0,0,0,0,0,0,1004.1,1018.1
182,2019-10-28T03:01:00,0.2,静穏,0.8,西,11.9,93.8,0,0,0,0,0,0,1004.1,1018.1
183,2019-10-28T03:02:00,0.2,静穏,0.8,西,11.9,94.1,0,0,0,0,0,0,1004.1,1018.1
184,2019-10-28T03:03:00,0.1,静穏,0.6,西,11.9,93.9,0,0,0,0,0,0,1004,1018
185,2019-10-28T03:04:00,0.1,静穏,0.6,西,11.8,93.5,0,0,0,0,0,0,1004,1018
186,2019-10-28T03:05:00,0.1,静穏,0.6,西,11.7,92.8,0,0,0,0,0,0,1004,1018
187,2019-10-28T03:06:00,0.2,静穏,0.7,西,11.6,92.7,0,0,0,0,0,0,1004.1,1018.1
188,2019-10-28T03:07:00,0.2,静穏,0.7,西,11.6,92.7,0,0,0,0,0,0,1004.1,1018.1
189,2019-10-28T03:08:00,0.3,北西,0.7,西,11.5,93,0,0,0,0,0,0,1004.1,1018.1
190,2019-10-28T03:09:00,0.3,北西,0.7,西,11.5,93.2,0,0,0,0,0,0,1004.1,1018.1
191,2019-10-28T03:10:00,0.3,北西,0.7,西,11.5,93.6,0,0,0,0,0,0,1004.1,1018.1
192,2019-10-28T03:11:00,0.4,西北西,0.7,西,11.6,93.9,0,0,0,0,0,0,1004.1,1018.1
193,2019-10-28T03:12:00,0.5,西北西,1.1,西,11.7,94.4,0,0,0,0,0,0,1004.1,1018.1
194,2019-10-28T03:13:00,0.5,西北西,1.1,西,11.8,94.6,0,0,0,0,0,0,1004.1,1018.1
195,2019-10-28T03:14:00,0.5,西北西,1.1,西,11.6,94.3,0,0,0,0,0,0,1004.1,1018.1
196,2019-10-28T03:15:00,0.6,西北西,1.1,西,11.6,93.7,0,0,0,0,0,0,1004.1,1018.1
197,2019-10-28T03:16:00,0.6,西北西,1.1,西,11.6,93.3,0,0,0,0,0,0,1004.1,1018.1
198,2019-10-28T03:17:00,0.6,西北西,1.1,西,11.6,93.6,0,0,0,0,0,0,1004.1,1018.1
199,2019-10-28T03:18:00,0.5,西北西,1.1,西,11.4,93.4,0,0,0,0,0,0,1004.1,1018.2
200,2019-10-28T03:19:00,0.5,西北西,1.1,西,11.6,93.8,0,0,0,0,0,0,1004.1,1018.1
201,2019-10-28T03:20:00,0.5,西,1.1,西,11.6,94.5,0,0,0,0,0,0,1004.1,1018.1
202,2019-10-28T03:21:00,0.5,西,1.1,西,11.6,94.3,0,0,0,0,0,0,1004.1,1018.1
203,2019-10-28T03:22:00,0.4,西北西,1,西北西,11.6,93.8,0,0,0,0,0,0,1004.2,1018.2
204,2019-10-28T03:23:00,0.4,西北西,1,西北西,11.6,94,0,0,0,0,0,0,1004.2,1018.2
205,2019-10-28T03:24:00,0.3,西北西,1,西北西,11.7,94,0,0,0,0,0,0,1004.2,1018.2
206,2019-10-28T03:25:00,0.2,静穏,0.6,西,11.8,94.4,0,0,0,0,0,0,1004.2,1018.2
207,2019-10-28T03:26:00,0.2,静穏,0.6,西,11.7,93.9,0,0,0,0,0,0,1004.2,1018.2
208,2019-10-28T03:27:00,0.2,静穏,0.6,西,11.6,93.4,0,0,0,0,0,0,1004.3,1018.3
209,2019-10-28T03:28:00,0.1,静穏,0.6,西,11.7,93.6,0,0,0,0,0,0,1004.3,1018.3
210,2019-10-28T03:29:00,0.1,静穏,0.6,西,11.6,93.7,0,0,0,0,0,0,1004.3,1018.3
211,2019-10-28T03:30:00,0.1,静穏,0.4,西北西,11.6,93.3,0,0,0,0,0,0,1004.3,1018.3
212,2019-10-28T03:31:00,0,静穏,0.4,西北西,11.6,93.5,0,0,0,0,0,0,1004.3,1018.3
213,2019-10-28T03:32:00,0,静穏,0.1,東北東,11.6,93.6,0,0,0,0,0,0,1004.3,1018.3
214,2019-10-28T03:33:00,0,静穏,0.3,北東,11.7,93.9,0,0,0,0,0,0,1004.3,1018.3
215,2019-10-28T03:34:00,0,静穏,0.3,北東,11.6,93.9,0,0,0,0,0,0,1004.3,1018.3
216,2019-10-28T03:35:00,0.1,静穏,0.4,北東,11.6,93.6,0,0,0,0,0,0,1004.3,1018.3
217,2019-10-28T03:36:00,0.1,静穏,0.7,北東,11.5,93.6,0,0,0,0,0,0,1004.3,1018.4
218,2019-10-28T03:37:00,0.1,静穏,1,東北東,11.4,93.2,0,0,0,0,0,0,1004.4,1018.5
219,2019-10-28T03:38:00,0.2,静穏,1,東北東,11.3,93.2,0,0,0,0,0,0,1004.4,1018.5
220,2019-10-28T03:39:00,0.2,静穏,1,東北東,11.3,93.5,0,0,0,0,0,0,1004.4,1018.5
221,2019-10-28T03:40:00,0.2,静穏,1,東北東,11.3,94,0,0,0,0,0,0,1004.3,1018.4
222,2019-10-28T03:41:00,0.2,静穏,1,東北東,11.3,94.4,0,0,0,0,0,0,1004.3,1018.4
223,2019-10-28T03:42:00,0.3,東北東,1,東北東,11.3,94.7,0,0,0,0,0,0,1004.3,1018.4
224,2019-10-28T03:43:00,0.3,東北東,1,東北東,11.4,95.2,0,0,0,0,0,0,1004.4,1018.5
225,2019-10-28T03:44:00,0.3,東北東,1,東北東,11.4,95.3,0,0,0,0,0,0,1004.4,1018.5
226,2019-10-28T03:45:00,0.3,東北東,1,東北東,11.5,95.4,0,0,0,0,0,0,1004.4,1018.5
227,2019-10-28T03:46:00,0.3,北東,1,東北東,11.6,95.3,0,0,0,0,0,0,1004.4,1018.4
228,2019-10-28T03:47:00,0.2,静穏,0.6,東,11.4,95.2,0,0,0,0,0,0,1004.4,1018.5
229,2019-10-28T03:48:00,0.3,北北東,0.6,東,11.3,94.3,0,0,0,0,0,0,1004.4,1018.5
230,2019-10-28T03:49:00,0.3,北,0.6,東,11.3,94.2,0,0,0,0,0,0,1004.4,1018.5
231,2019-10-28T03:50:00,0.3,北北西,0.6,東,11.2,93.8,0,0,0,0,0,0,1004.4,1018.5
232,2019-10-28T03:51:00,0.2,静穏,0.5,西北西,11.2,93.9,0,0,0,0,0,0,1004.4,1018.5
233,2019-10-28T03:52:00,0.2,静穏,0.5,西北西,11.3,94.6,0,0,0,0,0,0,1004.4,1018.5
234,2019-10-28T03:53:00,0.2,静穏,0.5,西北西,11.3,94.5,0,0,0,0,0,0,1004.4,1018.5
235,2019-10-28T03:54:00,0.2,静穏,0.5,西北西,11.3,94.8,0,0,0,0,0,0,1004.5,1018.6
236,2019-10-28T03:55:00,0.3,西北西,0.5,西北西,11.3,94.7,0,0,0,0,0,0,1004.5,1018.6
237,2019-10-28T03:56:00,0.2,静穏,0.5,西北西,11.1,94.2,0,0,0,0,0,0,1004.4,1018.5
238,2019-10-28T03:57:00,0.2,静穏,0.5,西北西,11.3,94.3,0,0,0,0,0,0,1004.4,1018.5
239,2019-10-28T03:58:00,0.2,静穏,0.5,西北西,11.4,94.9,0,0,0,0,0,0,1004.4,1018.5
240,2019-10-28T03:59:00,0.2,静穏,0.5,西北西,11.3,94.8,0,0,0,0,0,0,1004.4,1018.5
241,2019-10-28T04:00:00,0.2,静穏,0.5,西北西,11.4,94.7,0,0,0,0,0,0,1004.4,1018.5
242,2019-10-28T04:01:00,0.2,静穏,0.5,西北西,11.4,94.7,0,0,0,0,0,0,1004.4,1018.5
243,2019-10-28T04:02:00,0.2,静穏,0.5,西北西,11.3,94.6,0,0,0,0,0,0,1004.4,1018.5
244,2019-10-28T04:03:00,0.1,静穏,0.5,西北西,11.2,94.2,0,0,0,0,0,0,1004.4,1018.5
245,2019-10-28T04:04:00,0.1,静穏,0.5,西北西,11.3,94.2,0,0,0,0,0,0,1004.4,1018.5
246,2019-10-28T04:05:00,0.1,静穏,0.4,北西,11.3,94.6,0,0,0,0,0,0,1004.4,1018.5
247,2019-10-28T04:06:00,0.1,静穏,0.7,西北西,11.3,94.6,0,0,0,0,0,0,1004.4,1018.5
248,2019-10-28T04:07:00,0.2,静穏,0.7,西北西,11.3,94.7,0,0,0,0,0,0,1004.4,1018.5
249,2019-10-28T04:08:00,0.2,静穏,0.7,西北西,11.2,94.4,0,0,0,0,0,0,1004.4,1018.5
250,2019-10-28T04:09:00,0.3,北西,0.7,西北西,11.1,94.1,0,0,0,0,0,0,1004.4,1018.5
251,2019-10-28T04:10:00,0.3,北西,0.7,西北西,11,93.9,0,0,0,0,0,0,1004.4,1018.5
252,2019-10-28T04:11:00,0.4,西北西,0.7,西北西,11.1,94.1,0,0,0,0,0,0,1004.4,1018.5
253,2019-10-28T04:12:00,0.4,西北西,0.7,西北西,11.1,94.4,0,0,0,0,0,0,1004.4,1018.5
254,2019-10-28T04:13:00,0.4,西北西,0.7,西北西,11.1,94.5,0,0,0,0,0,0,1004.5,1018.6
255,2019-10-28T04:14:00,0.5,西北西,0.7,西北西,11.1,94.7,0,0,0,0,0,0,1004.5,1018.6
256,2019-10-28T04:15:00,0.5,西北西,0.8,西北西,11.1,94.9,0,0,0,0,0,0,1004.5,1018.6
257,2019-10-28T04:16:00,0.5,西北西,0.9,西,11.1,95,0,0,0,0,0,0,1004.5,1018.6
258,2019-10-28T04:17:00,0.6,西北西,0.9,西,11.1,94.9,0,0,0,0,0,0,1004.5,1018.6
259,2019-10-28T04:18:00,0.6,西北西,1,西,10.9,94.5,0,0,0,0,0,0,1004.5,1018.6
260,2019-10-28T04:19:00,0.7,西北西,1.1,西,10.9,94.2,0,0,0,0,0,0,1004.5,1018.6
261,2019-10-28T04:20:00,0.7,西北西,1.2,西北西,10.9,94.4,0,0,0,0,0,0,1004.5,1018.6
262,2019-10-28T04:21:00,0.8,西,1.2,西北西,11,94.6,0,0,0,0,0,0,1004.6,1018.7
263,2019-10-28T04:22:00,0.8,西,1.2,西北西,11,95,0,0,0,0,0,0,1004.5,1018.6
264,2019-10-28T04:23:00,0.9,西,1.2,西北西,11,94.8,0,0,0,0,0,0,1004.5,1018.6
265,2019-10-28T04:24:00,0.9,西,1.2,西北西,11,94.7,0,0,0,0,0,0,1004.6,1018.7
266,2019-10-28T04:25:00,0.9,西,1.2,西北西,10.9,94.4,0,0,0,0,0,0,1004.6,1018.7
267,2019-10-28T04:26:00,0.9,西,1.2,西北西,10.9,94,0,0,0,0,0,0,1004.6,1018.7
268,2019-10-28T04:27:00,0.9,西,1.2,西北西,10.8,94,0,0,0,0,0,0,1004.6,1018.7
269,2019-10-28T04:28:00,0.8,西,1.2,西北西,10.8,94.2,0,0,0,0,0,0,1004.6,1018.7
270,2019-10-28T04:29:00,0.8,西,1.2,西北西,10.9,94.6,0,0,0,0,0,0,1004.6,1018.7
271,2019-10-28T04:30:00,0.8,西,1.2,西北西,10.9,94.8,0,0,0,0,0,0,1004.6,1018.7
272,2019-10-28T04:31:00,0.7,西,1.2,西北西,10.9,94.6,0,0,0,0,0,0,1004.6,1018.7
273,2019-10-28T04:32:00,0.7,西,1,西北西,10.9,94.8,0,0,0,0,0,0,1004.5,1018.6
274,2019-10-28T04:33:00,0.6,西,1,西北西,10.8,94.8,0,0,0,0,0,0,1004.6,1018.7
275,2019-10-28T04:34:00,0.6,西,0.9,西,10.9,94.7,0,0,0,0,0,0,1004.6,1018.7
276,2019-10-28T04:35:00,0.6,西,0.8,西,10.9,95.1,0,0,0,0,0,0,1004.6,1018.7
277,2019-10-28T04:36:00,0.6,西,0.9,西北西,10.9,95.1,0,0,0,0,0,0,1004.6,1018.7
278,2019-10-28T04:37:00,0.6,西,0.9,西北西,10.9,94.9,0,0,0,0,0,0,1004.6,1018.7
279,2019-10-28T04:38:00,0.6,西,0.9,西北西,10.9,94.8,0,0,0,0,0,0,1004.6,1018.7
280,2019-10-28T04:39:00,0.6,西,0.9,西北西,10.9,94.6,0,0,0,0,0,0,1004.6,1018.7
281,2019-10-28T04:40:00,0.6,西北西,0.9,西北西,11.1,95,0,0,0,0,0,0,1004.6,1018.7
282,2019-10-28T04:41:00,0.5,西北西,0.9,西北西,11,95.2,0,0,0,0,0,0,1004.6,1018.7
283,2019-10-28T04:42:00,0.6,西北西,0.9,西北西,10.9,94.7,0,0,0,0,0,0,1004.6,1018.7
284,2019-10-28T04:43:00,0.6,西北西,1,西,10.8,94.5,0,0,0,0,0,0,1004.6,1018.7
285,2019-10-28T04:44:00,0.6,西北西,1,西,10.8,94.5,0,0,0,0,0,0,1004.6,1018.7
286,2019-10-28T04:45:00,0.6,西北西,1,西,10.8,94.5,0,0,0,0,0,0,1004.7,1018.8
287,2019-10-28T04:46:00,0.6,西北西,1,西,10.9,94.7,0,0,0,0,0,0,1004.6,1018.7
288,2019-10-28T04:47:00,0.6,西北西,1,西,10.9,94.8,0,0,0,0,0,0,1004.6,1018.7
289,2019-10-28T04:48:00,0.5,西北西,1,西,10.8,94.8,0,0,0,0,0,0,1004.6,1018.7
290,2019-10-28T04:49:00,0.5,西北西,1,西,10.8,94.6,0,0,0,0,0,0,1004.6,1018.7
291,2019-10-28T04:50:00,0.5,西北西,1,西,10.8,94.9,0,0,0,0,0,0,1004.7,1018.8
292,2019-10-28T04:51:00,0.5,西北西,1,西,10.9,95.2,0,0,0,0,0,0,1004.7,1018.8
293,2019-10-28T04:52:00,0.4,西北西,1,西,10.9,95.2,0,0,0,0,0,0,1004.7,1018.8
294,2019-10-28T04:53:00,0.4,西北西,1,西北西,11,95.4,0,0,0,0,0,0,1004.7,1018.8
295,2019-10-28T04:54:00,0.5,西北西,1.3,西北西,10.9,95.3,0,0,0,0,0,0,1004.7,1018.8
296,2019-10-28T04:55:00,0.5,西北西,1.5,西北西,10.9,94.9,0,0,0,0,0,0,1004.7,1018.8
297,2019-10-28T04:56:00,0.6,西北西,1.6,西北西,11,95.3,0,0,0,0,0,0,1004.7,1018.8
298,2019-10-28T04:57:00,0.7,西北西,1.6,西北西,11.1,95.4,0,0,0,0,0,0,1004.7,1018.8
299,2019-10-28T04:58:00,0.8,西北西,1.6,西北西,10.9,94.8,0,0,0,0,0,0,1004.7,1018.8
300,2019-10-28T04:59:00,0.9,西北西,1.9,西北西,11,94.9,0,0,0,0,0,0,1004.7,1018.8
301,2019-10-28T05:00:00,1,西北西,1.9,西北西,11,94.7,0,0,0,0,0,0,1004.7,1018.8
302,2019-10-28T05:01:00,1.2,西北西,1.9,西北西,11.1,94.6,0,0,0,0,0,0,1004.7,1018.8
303,2019-10-28T05:02:00,1.3,西北西,1.9,西北西,11.1,94.3,0,0,0,0,0,0,1004.8,1018.9
304,2019-10-28T05:03:00,1.3,西北西,1.9,西北西,11,93.7,0,0,0,0,0,0,1004.8,1018.9
305,2019-10-28T05:04:00,1.4,西北西,1.9,西北西,10.8,93.1,0,0,0,0,0,0,1004.8,1018.9
306,2019-10-28T05:05:00,1.4,西北西,1.9,西北西,10.7,92.6,0,0,0,0,0,0,1004.8,1018.9
307,2019-10-28T05:06:00,1.4,西,1.9,西北西,10.9,93.1,0,0,0,0,0,0,1004.8,1018.9
308,2019-10-28T05:07:00,1.4,西,1.9,西北西,11,93.8,0,0,0,0,0,0,1004.8,1018.9
309,2019-10-28T05:08:00,1.4,西,1.9,西北西,11.1,94,0,0,0,0,0,0,1004.8,1018.9
310,2019-10-28T05:09:00,1.3,西,1.9,西北西,11.2,94,0,0,0,0,0,0,1004.8,1018.9
311,2019-10-28T05:10:00,1.2,西,1.8,西,10.9,93.1,0,0,0,0,0,0,1004.7,1018.8
312,2019-10-28T05:11:00,1.2,西,1.7,西,10.9,92.6,0,0,0,0,0,0,1004.7,1018.8
313,2019-10-28T05:12:00,1.1,西,1.7,西,10.8,92.9,0,0,0,0,0,0,1004.7,1018.8
314,2019-10-28T05:13:00,1,西,1.6,西,10.8,93,0,0,0,0,0,0,1004.7,1018.8
315,2019-10-28T05:14:00,0.9,西,1.5,西,10.8,93.4,0,0,0,0,0,0,1004.7,1018.8
316,2019-10-28T05:15:00,0.9,西,1.4,西,10.8,93.9,0,0,0,0,0,0,1004.7,1018.8
317,2019-10-28T05:16:00,0.8,西,1.3,西,10.8,94,0,0,0,0,0,0,1004.7,1018.8
318,2019-10-28T05:17:00,0.8,西,1.1,西,10.8,94.1,0,0,0,0,0,0,1004.7,1018.8
319,2019-10-28T05:18:00,0.8,西,1.1,西,10.9,94.5,0,0,0,0,0,0,1004.7,1018.8
320,2019-10-28T05:19:00,0.8,西,1.1,西,10.9,94.6,0,0,0,0,0,0,1004.7,1018.8
321,2019-10-28T05:20:00,0.8,西,1.2,西,10.8,94.7,0,0,0,0,0,0,1004.7,1018.8
322,2019-10-28T05:21:00,0.9,西,1.3,西,11,94.9,0,0,0,0,0,0,1004.7,1018.8
323,2019-10-28T05:22:00,0.9,西,1.5,西,11,95.1,0,0,0,0,0,0,1004.7,1018.8
324,2019-10-28T05:23:00,1,西,1.5,西,11,94.9,0,0,0,0,0,0,1004.7,1018.8
325,2019-10-28T05:24:00,1,西,1.5,西,10.8,94.3,0,0,0,0,0,0,1004.7,1018.8
326,2019-10-28T05:25:00,1,西,1.5,西,10.8,94.1,0,0,0,0,0,0,1004.7,1018.8
327,2019-10-28T05:26:00,1,西,1.5,西,10.8,94.4,0,0,0,0,0,0,1004.8,1018.9
328,2019-10-28T05:27:00,1,西,1.5,西,10.8,94.6,0,0,0,0,0,0,1004.8,1018.9